Weather History for KZZV - January, 2014

Change the Weather History Date:

Monday, January 6, 2014

  Actual Average Record
Temperature  
Mean Temperature 18 °F 29 °F  
Max Temperature 44 °F 37 °F 68 °F (1946)
Min Temperature -8 °F 21 °F -8 °F (2014)
Degree Days  
Heating Degree Days 47 36  
Month to date heating degree days 255 216  
Since 1 July heating degree days 2384 2361  
Cooling Degree Days 0 0  
Month to date cooling degree days 0 0  
Year to date cooling degree days 0 0  
Moisture  
Dew Point 0 °F    
Average Humidity 67    
Maximum Humidity 81    
Minimum Humidity 52    
Precipitation  
Precipitation 0.04 in 0.09 in 1.10 in (1950)
Month to date precipitation 0.15 0.54  
Year to date precipitation 0.15 0.54  
Sea Level Pressure  
Sea Level Pressure 29.99 in    
Wind  
Wind Speed 17 mph (West)    
Max Wind Speed 25 mph    
Max Gust Speed 37 mph    
Visibility 4 miles    
Events Rain , Snow    
T = Trace of Precipitation, MM = Missing Value Source: NWS Daily Summary

Daily Weather History Graph

Daily Weather History Graph

Search for Another Location

Airport or City:

Trip Planner

Search our weather history database for the weather conditions in past years. The results will help you decide how hot, cold, wet, or windy it might be!

Date:

Astronomy

Jan. 06, 2014 Rise Set
Actual Time 7:49 AM EST 5:17 PM EST
Civil Twilight 7:19 AM EST 5:47 PM EST
Nautical Twilight 6:45 AM EST 6:21 PM EST
Astronomical Twilight 6:12 AM EST 6:54 PM EST
Moon 11:04 AM EST (1/6) 11:49 PM EST (1/6)
Length of Visible Light 10h 28m
Length of Day
9h 28m
Waxing Crescent, 34% of the Moon is Illuminated
Jan 6
Waxing Crescent
Jan 7
First Quarter
Jan 15
Full
Jan 24
Last Quarter
Jan 30
New

Hourly Weather History & Observations

Time (EST) Temp. Windchill Dew Point Humidity Pressure Visibility Wind Dir Wind Speed Gust Speed Precip Events Conditions
12:33 AM 42.8 °F 37.0 °F 37.4 °F 81% 29.42 in 8.0 mi West 10.4 mph - 0.03 in Rain Light Rain
12:41 AM 41.0 °F 34.3 °F 37.4 °F 87% 29.45 in 7.0 mi West 11.5 mph 18.4 mph 0.03 in Rain Light Rain
12:53 AM 39.0 °F 29.9 °F 34.0 °F 82% 29.47 in 6.0 mi West 17.3 mph 33.4 mph 0.04 in Rain Light Rain
1:00 AM 37.4 °F 27.8 °F 33.8 °F 87% 29.47 in 7.0 mi West 17.3 mph 31.1 mph 0.01 in Rain Light Rain
1:33 AM 33.8 °F 21.6 °F 28.4 °F 81% 29.52 in 2.0 mi West 23.0 mph 32.2 mph 0.01 in Snow Light Snow
1:53 AM 30.0 °F 18.3 °F 26.1 °F 85% 29.57 in 2.5 mi West 17.3 mph 26.5 mph 0.01 in Snow Light Snow
2:02 AM 30.2 °F 18.1 °F 24.8 °F 80% 29.58 in 4.0 mi West 18.4 mph 28.8 mph 0.00 in Snow Light Snow
2:42 AM 26.6 °F 14.3 °F 21.2 °F 80% 29.63 in 10.0 mi West 16.1 mph 24.2 mph 0.00 in   Overcast
2:53 AM 27.0 °F 13.9 °F 21.0 °F 78% 29.67 in 10.0 mi West 18.4 mph 31.1 mph 0.00 in   Overcast
3:50 AM 24.8 °F 13.4 °F 19.4 °F 80% 29.72 in 8.0 mi WNW 12.7 mph 23.0 mph N/A   Overcast
3:53 AM 25.0 °F 11.7 °F 19.0 °F 78% 29.74 in 9.0 mi WNW 17.3 mph 24.2 mph N/A   Overcast
4:53 AM 23.0 °F 8.0 °F 16.0 °F 74% 29.80 in 5.0 mi WNW 20.7 mph 27.6 mph 0.00 in Snow Light Snow
5:11 AM 23.0 °F 11.1 °F 15.8 °F 74% 29.79 in 2.5 mi West 12.7 mph 27.6 mph 0.00 in Snow Light Snow
5:37 AM 21.2 °F 8.3 °F 15.8 °F 80% 29.80 in 1.8 mi West 13.8 mph 23.0 mph 0.00 in Snow Light Snow
5:53 AM 21.9 °F 9.8 °F 16.0 °F 78% 29.84 in 1.5 mi West 12.7 mph - 0.00 in Snow Light Snow
6:26 AM 21.2 °F 8.3 °F 15.8 °F 80% 29.83 in 2.5 mi WNW 13.8 mph 25.3 mph 0.00 in Snow Light Snow
6:35 AM 21.2 °F 8.9 °F 15.8 °F 80% 29.83 in 3.0 mi West 12.7 mph 20.7 mph 0.00 in Snow Light Snow
6:47 AM 21.2 °F 8.9 °F 15.8 °F 80% 29.84 in 1.8 mi West 12.7 mph - 0.00 in Snow Light Snow
6:53 AM 21.0 °F 9.3 °F 15.1 °F 78% 29.87 in 1.5 mi West 11.5 mph - 0.00 in Snow Light Snow
7:01 AM 17.6 °F 3.7 °F 12.2 °F 79% 29.86 in 1.0 mi West 13.8 mph 20.7 mph 0.00 in Snow Light Snow
7:09 AM 17.6 °F 2.7 °F 12.2 °F 79% 29.86 in 0.8 mi West 16.1 mph 27.6 mph 0.00 in Snow Light Snow
7:21 AM 15.8 °F -2.3 °F 10.4 °F 79% 29.87 in 1.5 mi West 23.0 mph 29.9 mph 0.00 in Snow Light Snow
7:29 AM 15.8 °F -1.9 °F 8.6 °F 73% 29.88 in 3.0 mi West 21.9 mph 31.1 mph 0.00 in Snow Light Snow
7:45 AM 14.0 °F -3.0 °F 8.6 °F 79% 29.90 in 2.5 mi West 18.4 mph 28.8 mph 0.00 in Snow Light Snow
7:53 AM 14.0 °F -3.9 °F 7.0 °F 74% 29.93 in 2.5 mi West 20.7 mph 27.6 mph 0.00 in Snow Light Snow
8:00 AM 12.2 °F -5.8 °F 6.8 °F 79% 29.91 in 3.0 mi West 19.6 mph 29.9 mph 0.00 in Snow Light Snow
8:13 AM 12.2 °F -5.8 °F 5.0 °F 73% 29.92 in 1.8 mi West 19.6 mph 32.2 mph 0.00 in Snow Light Snow
8:30 AM 10.4 °F -9.1 °F 3.2 °F 73% 29.93 in 2.0 mi West 21.9 mph 28.8 mph 0.00 in Snow Light Snow
8:37 AM 10.4 °F -7.7 °F 3.2 °F 73% 29.94 in 1.5 mi West 18.4 mph 29.9 mph 0.00 in Snow Light Snow
8:44 AM 10.4 °F -8.6 °F 3.2 °F 73% 29.94 in 1.2 mi West 20.7 mph 29.9 mph 0.00 in Snow Light Snow
8:53 AM 10.0 °F -7.1 °F 3.0 °F 73% 29.99 in 1.0 mi West 16.1 mph 27.6 mph 0.00 in Snow Light Snow
9:08 AM 8.6 °F -9.5 °F 3.2 °F 79% 29.96 in 0.8 mi WNW 17.3 mph 25.3 mph 0.00 in Snow Light Snow
9:20 AM 8.6 °F -4.7 °F 1.4 °F 73% 29.97 in 1.0 mi West 9.2 mph - 0.00 in Snow Light Snow
9:33 AM 8.6 °F -7.7 °F 1.4 °F 73% 29.98 in 0.8 mi West 13.8 mph 23.0 mph 0.00 in Snow Light Snow
9:51 AM 8.6 °F -8.9 °F 1.4 °F 73% 29.99 in 1.5 mi West 16.1 mph 25.3 mph 0.00 in Snow Light Snow
9:53 AM 7.0 °F -11.0 °F -0.0 °F 73% 30.02 in 1.8 mi West 16.1 mph 25.3 mph 0.00 in Snow Light Snow
10:08 AM 6.8 °F -11.3 °F -0.4 °F 72% 29.99 in 3.0 mi WSW 16.1 mph 24.2 mph 0.00 in Snow Light Snow
10:25 AM 6.8 °F -11.8 °F -0.4 °F 72% 30.00 in 2.5 mi West 17.3 mph 23.0 mph 0.00 in Snow Light Snow
10:38 AM 6.8 °F -8.6 °F -0.4 °F 72% 30.00 in 1.8 mi West 11.5 mph 25.3 mph 0.00 in Snow Light Snow
10:46 AM 6.8 °F -8.6 °F -0.4 °F 72% 30.00 in 1.0 mi West 11.5 mph 21.9 mph 0.00 in Snow Light Snow
10:53 AM 6.1 °F -13.8 °F -2.0 °F 69% 30.03 in 1.0 mi West 19.6 mph 26.5 mph 0.00 in Snow Light Snow
11:01 AM 5.0 °F -14.2 °F -4.0 °F 66% 30.00 in 1.8 mi West 17.3 mph 28.8 mph 0.00 in Snow Light Snow
11:04 AM 5.0 °F -13.0 °F -2.2 °F 72% 30.01 in 3.0 mi West 15.0 mph 28.8 mph 0.00 in   Haze
11:08 AM 5.0 °F -14.7 °F -2.2 °F 72% 30.01 in 2.0 mi West 18.4 mph 28.8 mph 0.00 in Snow Light Snow
11:10 AM 5.0 °F -15.2 °F -2.2 °F 72% 30.01 in 1.2 mi West 19.6 mph 28.8 mph 0.00 in Snow Light Snow
11:19 AM 3.2 °F -16.5 °F -4.0 °F 72% 30.01 in 1.8 mi West 17.3 mph 28.8 mph 0.00 in Snow Light Snow
11:21 AM 3.2 °F -17.6 °F -5.8 °F 66% 30.01 in 4.0 mi West 19.6 mph 31.1 mph 0.00 in   Haze
11:53 AM 3.0 °F -15.5 °F -5.1 °F 69% 30.05 in 2.0 mi West 15.0 mph 25.3 mph 0.00 in   Haze
11:58 AM 3.2 °F -13.9 °F -4.0 °F 72% 30.01 in 1.8 mi West 12.7 mph 25.3 mph N/A   Haze
12:02 PM 3.2 °F -17.1 °F -4.0 °F 72% 30.01 in 3.0 mi West 18.4 mph 26.5 mph N/A   Haze
12:53 PM 1.9 °F -20.2 °F -9.0 °F 60% 30.05 in 9.0 mi West 21.9 mph 32.2 mph N/A   Overcast
1:16 PM 1.4 °F -21.0 °F -7.6 °F 66% 30.02 in 1.5 mi West 21.9 mph 31.1 mph 0.00 in Snow Light Snow
1:18 PM 1.4 °F -19.9 °F -7.6 °F 66% 30.02 in 0.8 mi West 19.6 mph 28.8 mph 0.00 in Snow Light Snow
1:28 PM 1.4 °F -19.4 °F -11.2 °F 56% 30.02 in 1.5 mi West 18.4 mph 29.9 mph 0.00 in Snow Light Snow
1:30 PM 1.4 °F -20.5 °F -11.2 °F 56% 30.03 in 4.0 mi West 20.7 mph 29.9 mph 0.00 in Snow Light Snow
1:53 PM 1.0 °F -19.9 °F -9.9 °F 60% 30.08 in 10.0 mi West 18.4 mph 29.9 mph 0.00 in   Overcast
2:14 PM 1.4 °F -19.4 °F -9.4 °F 61% 30.04 in 2.5 mi West 18.4 mph 27.6 mph N/A   Haze
2:22 PM -0.4 °F -21.2 °F -9.4 °F 66% 30.05 in 6.0 mi West 17.3 mph 27.6 mph N/A   Haze
2:27 PM -0.4 °F -20.5 °F -9.4 °F 66% 30.06 in 1.5 mi West 16.1 mph 25.3 mph 0.00 in Snow Light Snow
2:30 PM -0.4 °F -20.5 °F -9.4 °F 66% 30.06 in 0.8 mi West 16.1 mph 25.3 mph 0.00 in Snow Light Snow
2:43 PM -0.4 °F -20.5 °F -9.4 °F 66% 30.07 in 1.5 mi West 16.1 mph 29.9 mph 0.00 in Snow Light Snow
2:45 PM 1.4 °F -19.9 °F -9.4 °F 61% 30.07 in 3.0 mi WSW 19.6 mph 29.9 mph 0.00 in   Haze
2:53 PM -0.0 °F -22.9 °F -11.0 °F 60% 30.12 in 9.0 mi West 21.9 mph 29.9 mph 0.00 in   Overcast
3:41 PM -2.2 °F -24.7 °F -14.8 °F 55% 30.11 in 10.0 mi West 19.6 mph 28.8 mph N/A   Overcast
3:49 PM -2.2 °F -22.9 °F -11.2 °F 66% 30.11 in 2.5 mi West 16.1 mph 26.5 mph N/A   Haze
3:53 PM -2.0 °F -23.9 °F -9.9 °F 69% 30.16 in 1.0 mi West 18.4 mph 26.5 mph 0.00 in Snow Light Snow
4:00 PM -2.2 °F -22.9 °F -9.4 °F 71% 30.12 in 0.2 mi West 16.1 mph 26.5 mph 0.00 in Snow Heavy Snow
4:10 PM -2.2 °F -24.1 °F -11.2 °F 66% 30.12 in 1.8 mi West 18.4 mph 27.6 mph 0.00 in Snow Light Snow
4:12 PM -2.2 °F -24.1 °F -11.2 °F 66% 30.12 in 3.0 mi West 18.4 mph 27.6 mph 0.00 in   Haze
4:53 PM -2.9 °F -24.4 °F -13.0 °F 62% 30.19 in 5.0 mi West 17.3 mph 24.2 mph 0.00 in   Haze
5:53 PM -4.0 °F -28.1 °F -16.1 °F 56% 30.22 in 10.0 mi West 21.9 mph 29.9 mph N/A   Mostly Cloudy
6:39 PM -4.0 °F -22.1 °F -14.8 °F 60% 30.18 in 10.0 mi West 11.5 mph - N/A   Overcast
6:53 PM -4.0 °F -24.5 °F -15.0 °F 59% 30.25 in 7.0 mi WSW 15.0 mph 24.2 mph N/A   Overcast
7:18 PM -5.8 °F -29.9 °F -16.6 °F 60% 30.20 in 10.0 mi West 20.7 mph 29.9 mph N/A   Scattered Clouds
7:41 PM -5.8 °F -28.8 °F -16.6 °F 60% 30.21 in 9.0 mi WSW 18.4 mph 31.1 mph N/A   Mostly Cloudy
7:49 PM -5.8 °F -26.8 °F -16.6 °F 60% 30.21 in 10.0 mi West 15.0 mph 25.3 mph N/A   Mostly Cloudy
7:53 PM -5.1 °F -26.6 °F -17.0 °F 57% 30.28 in 10.0 mi West 16.1 mph 23.0 mph N/A   Mostly Cloudy
8:21 PM -5.8 °F -29.4 °F -16.6 °F 60% 30.22 in 10.0 mi West 19.6 mph 28.8 mph N/A   Mostly Cloudy
8:53 PM -6.0 °F -30.2 °F -18.0 °F 56% 30.30 in 10.0 mi West 20.7 mph 32.2 mph N/A   Overcast
9:18 PM -5.8 °F -28.2 °F -14.8 °F 65% 30.24 in 1.8 mi West 17.3 mph 24.2 mph 0.00 in Snow Light Snow
9:28 PM -5.8 °F -28.2 °F -14.8 °F 65% 30.24 in 1.2 mi West 17.3 mph 26.5 mph 0.00 in Snow Light Snow
9:34 PM -7.6 °F -29.1 °F -14.8 °F 71% 30.24 in 2.0 mi WSW 15.0 mph 25.3 mph 0.00 in Snow Light Snow
9:53 PM -7.1 °F -26.8 °F -17.0 °F 62% 30.32 in 7.0 mi West 12.7 mph 20.7 mph 0.00 in   Mostly Cloudy
10:53 PM -8.0 °F -25.0 °F -16.1 °F 68% 30.33 in 5.0 mi West 9.2 mph 19.6 mph N/A   Haze
11:04 PM -7.6 °F -23.4 °F -14.8 °F 71% 30.26 in 1.8 mi WSW 8.1 mph 16.1 mph 0.00 in Snow Light Snow
11:13 PM -7.6 °F -26.6 °F -14.8 °F 71% 30.26 in 1.0 mi West 11.5 mph 20.7 mph 0.00 in Snow Light Snow
11:26 PM -7.6 °F -28.3 °F -16.6 °F 65% 30.26 in 2.0 mi West 13.8 mph 20.7 mph 0.00 in Snow Light Snow
11:34 PM -7.6 °F -29.8 °F -16.6 °F 65% 30.26 in 6.0 mi West 16.1 mph 26.5 mph 0.00 in   Haze
11:53 PM -8.0 °F -30.3 °F -18.9 °F 59% 30.34 in 10.0 mi West 16.1 mph 28.8 mph 0.00 in   Overcast